Preview of NWS' New Version of Forecast
This preview is not operational and should not be used for support decisions.

Regional Weather Roundup (RWR)

Issued by Fort Worth/Dallas, TX (FWD)

                            
332 
ASUS44 KFWD 212315
RWRFWD
NORTH TEXAS HOURLY WEATHER ROUNDUP
NATIONAL WEATHER SERVICE FORT WORTH TX
600 PM CDT THU JUN 21 2018

NOTE: "FAIR" INDICATES FEW OR NO CLOUDS BELOW 12,000 FEET WITH NO
SIGNIFICANT WEATHER AND/OR OBSTRUCTIONS TO VISIBILITY.

TXZ118-119-220000-
DALLAS/FORT WORTH METROPLEX
  
CITY           SKY/WX    TMP DP  RH WIND       PRES   REMARKS
DFW AIRPORT    FAIR      96  61  31 CALM      29.82F HX  96           
DALLAS LOVE    FAIR      99  63  30 W8        29.83F HX 101           
FTW MEACHAM    FAIR     N/A N/A N/A VRB3      29.83F                  
DAL-EXECUTIVE  FAIR      98  67  36 SE7       29.83F HX 102           
FTW-ALLIANCE   FAIR      97  62  31 VRB6      29.83F HX  98           
FTW-NAS-JRB    FAIR     100  58  24 N6        29.84F HX  99           
FTW-SPINKS     MOSUNNY  100  63  28 SE5       29.86F HX 102           
ARLINGTON      FAIR      97  64  33 VRB6      29.84F HX  99           
GRAND PRAIRIE  SUNNY     99  59  26 W5        29.85F HX  98           
ADDISON        SUNNY     97  59  28 CALM      29.86F HX  96           
MESQUITE       MOSUNNY   97  66  36 SE8       29.84F HX 100           
LANCASTER      FAIR      94  72  48 SE5       29.85F HX 101           
$$

TXZ091>094-102>105-117-120-121-131>134-220000-
NORTH CENTRAL TEXAS
  
CITY           SKY/WX    TMP DP  RH WIND       PRES   REMARKS
SHRMAN/DENISON FAIR      93  68  44 NW7       29.86F HX  97           
BOWIE          FAIR      95  63  34 W6        29.86F HX  97           
BRIDGEPORT     FAIR      96  62  32 SW5       29.87F HX  96           
DECATUR        FAIR      96  63  33 CALM      29.86F HX  97           
DENTON         FAIR      95  68  41 S8        29.84F HX  99           
MCKINNEY       FAIR      95  66  38 VRB3      29.84F HX  98           
BONHAM         FAIR      91  70  49 N6        29.86S HX  97           
GREENVILLE     FAIR      95  68  41 SE6       29.84F HX  99           
ROCKWALL       FAIR      94  68  43 CALM      29.85F HX  98           
TERRELL        FAIR      95  67  39 S8        29.84F HX  99           
WAXAHACHIE     PTSUNNY   97  67  37 E3        29.85F HX 101           
CLEBURNE       FAIR      97  64  34 S8        29.86F HX  99           
GRANBURY       PTSUNNY   98  60  28 CALM      29.85F HX  98           
$$

TXZ083>090-098>101-113>116-127>130-139>142-154-155-220000-
WESTERN NORTH TEXAS
  
CITY           SKY/WX    TMP DP  RH WIND       PRES   REMARKS
WICHITA FALLS  FAIR      98  61  29 NW7       29.84F HX  98           
WF-KICKAPOO    FAIR      97  62  30 NW6       29.88F HX  98           
VERNON         FAIR      98  58  26 NW7       29.88F HX  98           
ABILENE        FAIR      94  60  32 VRB5      29.91F HX  94           
ABILENE-DYESS  FAIR      97  58  27 SE8       29.90F HX  96           
GRAHAM         FAIR      95  62  33 CALM      29.84F HX  96           
BRECKENRIDGE   PTSUNNY   98  55  23 CALM      29.87F HAZE    HX  95   
CISCO          FAIR      97  61  30 VRB3      29.91F HX  97           
EASTLAND       FAIR      96  60  30 SE7       29.89F HX  96           
RANGER         PTSUNNY   98  60  28 W6        29.89F HX  97           
MINERAL WELLS  FAIR      98  59  27 VRB6      29.84F HX  98           
STEPHENVILLE   FAIR      98  59  26 CALM      29.90F HX  97           
COMANCHE       FAIR      98  62  30 SE6       29.89F HX  99           
BROWNWOOD      RAIN      99  59  26 SW7       29.88F HX  98           
COLEMAN        FAIR      99  57  25 S5        29.90F HX  97           
BRADY          FAIR      95  61  31 SE8G15    29.92F HX  95           
$$

TXZ143>147-156>162-174-175-220000-
CENTRAL TEXAS
  
CITY           SKY/WX    TMP DP  RH WIND       PRES   REMARKS
WACO           FAIR      97  67  37 SE7       29.84F HX 101           
WACO-TSTC      MOSUNNY   99  64  32 SW3       29.84F HX 101           
WACO-MCGREGOR  FAIR      99  70  38 VRB5      29.85F HX 106           
HILLSBORO      FAIR      96  65  35 S5        29.85F HX  99           
CORSICANA      FAIR      92  72  51 SE8       29.86F HX  99           
MEXIA          PTSUNNY   95  71  44 S6        29.84F HX 102           
HEARNE         FAIR      90  76  63 S7        29.86F HX 101           
CAMERON        FAIR      92  74  54 S8        29.85F HX 102           
TEMPLE         FAIR      93  71  48 CALM      29.86F HX 100           
KILLEEN        FAIR      94  68  42 S7        29.86F HX  98           
KILLEEN-SKYLRK FAIR      96  72  45 SW8       29.86F HX 104           
FORT HOOD      FAIR      94  67  40 CALM      29.83F HX  97           
GATESVILLE     FAIR      97  66  36 S6        29.87F HX 100           
HAMILTON       FAIR      97  61  29 E3        29.90S HX  97           
LAMPASAS       FAIR      94  66  39 SW5       29.88S HX  97           
$$

TXZ095>097-106>112-122>126-135>138-148>153-164>167-220000-
EAST TEXAS
  
CITY           SKY/WX    TMP DP  RH WIND       PRES   REMARKS
PARIS            N/A     90  73  57 NW8       29.86F HX  98           
SULPHUR SPRNGS FAIR      94  67  41 CALM      29.86F HX  98           
MOUNT PLEASANT FAIR      92  73  53 SW7       29.85F HX 100           
GILMER         FAIR      90  74  58 SW3       29.85F HX  98           
MINEOLA        FAIR      93  72  49 S7        29.84F HX 100           
TYLER          FAIR      90  71  53 S9        29.86F HX  96           
LONGVIEW       FAIR      90  74  59 SW7       29.85F HX  99           
MARSHALL       FAIR      88  70  56 W7        29.87S HX  92           
ATHENS         FAIR      90  72  55 S6        29.85F HX  96           
PALESTINE      FAIR      91  71  52 CALM      29.87F HX  97           
JACKSONVILLE   FAIR      90  71  54 CALM      29.89S HX  96           
HENDERSON      FAIR      90  73  56 W5        29.87F HX  97           
CENTER         FAIR      89  73  58 SW3       29.86F HX  96           
NACOGDOCHES      N/A     90  76  63 NW6       29.86F HX 101           
LUFKIN         FAIR      91  75  59 SW7       29.85F HX 101           
$$

SUPPLEMENTAL OBSERVATIONS (NWS FORT WORTH AREA)
  
CITY           SKY/WX    TMP DP  RH WIND       PRES   REMARKS
DENISON DAM      N/A     90  64  43 N7          N/A  HX  91           
CADDO GRASSLND   N/A     93  72  49 NW2         N/A  HX 100           
LBJ GRASSLAND    N/A     97  63  32 SW5         N/A  HX  98           
POSSUM KINGDOM   N/A    100  61  27 S6          N/A  HX 101           
GRANBURY         N/A     97  61  30 NE5         N/A  HX  97           
COMANCHE         N/A     99  59  26 S6          N/A  HX  98           
MCGREGOR         N/A     99  68  36 S3          N/A  HX 104           
TEMPLE           N/A     95  70  43 S5          N/A  HX 101           
LAKE LIMESTONE   N/A     93  73  52 SW2         N/A  HX 102           
ATHENS           N/A     91  72  52 S5          N/A  HX  98           
PALESTINE        N/A     93  72  49 W1          N/A  HX 100           
$$

SUPPLEMENTAL OBSERVATIONS (NWS NORMAN AREA)
  
CITY           SKY/WX    TMP DP  RH WIND       PRES   REMARKS
GOODLETT         N/A     95  60  31 N6        29.89F HX  94           
ODELL            N/A     97  60  29 SW7       29.88F HX  96           
CROWELL          N/A     97  64  33 NW3       29.89F HX  99           
KNOX CITY        N/A    100  60  26 E5        29.88F HX 100           
SEYMOUR          N/A     99  60  27 W2        29.87F HX  99           
MILLERS CREEK    N/A    100  63  28 SE6         N/A  HX 102           
$$

SUPPLEMENTAL OBSERVATIONS (NWS SAN ANGELO AREA)
  
CITY           SKY/WX    TMP DP  RH WIND       PRES   REMARKS
WEINERT          N/A     98  58  25 W6        29.89F HX  97           
HASKELL          N/A     99  53  21 SW5       29.89F HX  96           
THROCKMORTON     N/A     99  67  35 W3        29.88F HX 103           
STAMFORD         N/A     99  63  30 SE8       29.89F HX 100           
CLYDE            N/A     95  61  32 SW2       29.94S HX  95           
HAMBY            N/A     95  59  30 E2          N/A  HX  94           
IVIE RESERVOIR   N/A     99  57  25 SE9         N/A  HX  97           
COLORADO BEND    N/A     97  66  36 SW2         N/A  HX 100           
$$

SUPPLEMENTAL OBSERVATIONS (NWS SHREVEPORT AREA)
  
CITY           SKY/WX    TMP DP  RH WIND       PRES   REMARKS
TEXARKANA        N/A     91  73  55 SW3         N/A  HX 100           
LINDEN           N/A     93  72  49 SW1         N/A  HX 100           
LUFKIN           N/A     91  75  59 MISG        N/A  HX 102           
N SABINE NF      N/A     91  75  59 MISG        N/A  HX 102           
$$

SUPPLEMENTAL OBSERVATIONS ARE A COLLECTION OF AUTOMATED INSTRUMENTS
THAT ARE MAINTAINED BY A VARIETY OF FEDERAL AND STATE AGENCIES. 
CERTAIN ELEMENTS...SUCH AS HUMIDITY VALUES AND SUSTAINED WIND 
SPEEDS...MAY BE APPROXIMATED.